Union Aéronautique de la Côte d'Azur

Union Aéronautique de la Côte d'Azur
UACA
Approuvé A.T.O. EASA – N°FR.ATO.0108

UNION des aéroclubs
Cannes “Ailes d’Azur”, Nice “Côte d’Azur”, Grasse “St Exupery”, ACCA “Francis Séverac”

Un cache-pitot se trouve à bord de chaque avion. Pensez à le mettre en place à la fin de chaque vol !

Avant de quitter l'avion, vérifiez que vous n'emportez pas la checklist

Un vol ne s'entreprend qu'avec un pare-brise parfaitement propre, il en va de votre sécurité, et de celle des autres

Après chaque vol, merci de mettre en place les pares-soleil!


Météo à Cannes:
METAR
LFMD 182130Z AUTO 01003KT CAVOK 23/18 Q1014 =

TAF
LFMD 181400Z 1815/1915 09010KT CAVOK BECMG 1819/1821 VRB03KT TEMPO 1821/1912 BKN010 BECMG 1900/1901 09010KT =

SR / SS: 04:03 / 19:13 UTC (LFMD 2018-07-18)